Regional Weather Roundup
Issued by NWS

Home | Current Version | Previous Version | Graphics & Text | Print | Product List | Glossary On
Versions: 1 2 3 4 5 6 7 8 9 10 11 12 13 14 15 16 17 18 19 20 21 22 23 24 25 26 27 28 29 30 31 32 33 34 35 36 37 38 39 40 41 42 43 44 45 46 47 48 49 50
000
ASUS43 KLOT 270404
RWRIL

ILLINOIS REGIONAL WEATHER ROUNDUP
NATIONAL WEATHER SERVICE CHICAGO/ROMEOVILLE IL
1100 PM CDT TUE JUL 26 2016

NOTE: "FAIR" INDICATES FEW OR NO CLOUDS BELOW 12,000 FEET WITH NO
SIGNIFICANT WEATHER AND/OR OBSTRUCTIONS TO VISIBILITY.

* THESE STATIONS ARE NOT UNDER NWS QUALITY CONTROL. THEY ALSO MAY NOT
  REPORT WEATHER SUCH AS PRECIPITATION OR FOG.

ILZ001-002-007-009-015-016-024-270500-
NORTHWEST ILLINOIS

CITY           SKY/WX    TMP DP  RH WIND       PRES   REMARKS
MOLINE         CLEAR     72  67  84 CALM      30.01S
STERLING*      CLEAR     69  68  96 CALM      30.03R
SAVANNA*       CLEAR     70  69  97 CALM      30.02R
$$

ILZ003-004-008-010-011-017-018-270500-
NORTH CENTRAL ILLINOIS

CITY           SKY/WX    TMP DP  RH WIND       PRES   REMARKS
ROCKFORD       CLEAR     74  66  76 CALM      30.03R
FREEPORT*      CLEAR     65  64  94 SW5       30.04S
ROCHELLE*      CLEAR     67  66  97 CALM      30.04R
DE KALB*       CLEAR     71  65  82 CALM      30.04R
$$

ILZ005-006-012>014-019>023-270500-
NORTHEAST ILLINOIS

CITY           SKY/WX    TMP DP  RH WIND       PRES   REMARKS
CHICAGO-OHARE  PTCLDY    76  62  62 S5        30.01S
CHICAGO-MIDWAY PTCLDY    79  61  53 S5        30.01S HX  80
AURORA         CLEAR     71  68  90 CALM      30.02S
LANSING*       MOCLDY    71  64  78 S5        30.02S
WAUKEGAN       CLEAR     70  63  78 SW3       30.01R
DUPAGE AIRPORT CLEAR     73  65  75 CALM      30.02S
KANKAKEE*      PTCLDY    71  69  93 CALM      30.04R
WHEELING       CLEAR     73  64  73 CALM      30.02F
MORRIS*        PTCLDY    72  70  91 CALM      30.01S
NORTHERLY ISL    N/A     73  68  84 S5          N/A
$$

LMZ740>746-270500-
SOUTHERN LAKE MICHIGAN

STATION/POSITION SKY/WX   TEMP    WIND        PRES    VSBY  WAVE
                          AIR SEA DIR/SP/G                  HT/PER
                          (F)     (DEG/KT/KT) (MB)    (MI)  (FT/S)
SOUTHERN BUOY              76 76  160/  8/  8 1015.3          0
WILMETTE HARBOR            72 71  200/  2/  2   N/A           0
HARRISON CRIB              76     180/  4/  4   N/A
BURNHAM HARBOR             73     170/  3/  5   N/A
CALUMET HARBOR                    150/  1/  4   N/A
BURNS HARBOR               76      90/  5/ 10 1016.9
MICHIGAN CITY              75      80/  3/  3   N/A
MICHIGAN CITY 6N           76 77   90/  4/  6   N/A           0
ST. JOSEPH                 76 78   40/  4/  4 1015.9F         0
$$

ILZ025>027-034>036-040-047-049-050-058-095>099-270500-
WEST-CENTRAL ILLINOIS

CITY           SKY/WX    TMP DP  RH WIND       PRES   REMARKS
QUINCY         PTCLDY    75  69  81 NE3       30.01S
GALESBURG*     CLEAR     69  67  94 CALM      30.02S
MACOMB*        CLEAR     69  68  96 CALM      30.03F
JACKSONVILLE*  CLEAR     73  70  93 CALM      30.01S
PITTSFIELD*    PTCLDY    75  73  91 CALM      30.02S
$$

ILZ028>032-037-038-041>044-048-051>054-059>061-270500-
CENTRAL ILLINOIS

CITY           SKY/WX    TMP DP  RH WIND       PRES   REMARKS
PONTIAC        CLEAR     72  72 100 CALM      30.03S FOG
DECATUR        CLEAR     70  68  93 E3        30.03S
PEORIA         CLEAR     77  71  82 CALM      30.02R
LACON*         CLEAR     72  69  91 CALM      30.01R
LINCOLN*       CLEAR     72  71  96 CALM      30.02S
SPRINGFIELD    CLEAR     74  71  91 CALM      30.02S
TAYLORVILLE    CLOUDY    71  69  93 MISG      30.02S
$$

ILZ033-039-045-046-055>057-062-063-270500-
EAST-CENTRAL ILLINOIS

CITY           SKY/WX    TMP DP  RH WIND       PRES   REMARKS
CHAMPAIGN      CLEAR     71  67  87 CALM      30.04R
MATTOON        MOCLDY    71  68  90 SE3       30.02S
PARIS*         MOCLDY    68  68 100 CALM      30.03S
$$

ILZ079-100>102-270500-
SOUTHWEST ILLINOIS

CITY           SKY/WX    TMP DP  RH WIND       PRES   REMARKS
ALTON          CLOUDY    73  72  96 SE3       30.02R
BELLEVILLE     PTCLDY    77  77  99 N2        29.99F
CAHOKIA*       PTCLDY    77  74  90 CALM      30.00S
SPARTA*        PTCLDY    74  73  96 CALM      30.01S
$$

ILZ064>066-069>071-074>076-080>082-084>086-088>090-092>094-270500-
SOUTH-CENTRAL ILLINOIS

CITY           SKY/WX    TMP DP  RH WIND       PRES   REMARKS
CARBONDALE     CLOUDY    76  74  93 CALM      30.00F
CAIRO*         CLOUDY    74  74  99 CALM      30.00S
EFFINGHAM*     PTCLDY    74  74  98 NE3       30.03F
MARION         CLOUDY    77  75  94 CALM      30.01F FOG
MT. VERNON     CLOUDY    75  70  83 MISG      30.01S
CENTRALIA*     MOCLDY    76  75  96 CALM      30.01F
SALEM*         PTCLDY    78  74  89 CALM      30.01S HX  80
METROPOLIS*    CLOUDY    75  74  97 CALM      30.00F FOG
$$

ILZ067-068-072-073-078-083-087-091-270500-
SOUTHEAST ILLINOIS

CITY           SKY/WX    TMP DP  RH WIND       PRES   REMARKS
LAWRENCEVILLE  CLOUDY    77  74  90 NE3       30.01S
FLORA*         CLOUDY    77  75  93 CALM      30.01F
FAIRFIELD*     MOCLDY    75  75  99 CALM      30.00F
HARRISBURG*    CLOUDY    74  74 100 CALM      30.01F FOG
ROBINSON*      CLOUDY    71  71  99 CALM      30.02F
CARMI*         CLOUDY    74  74 100 CALM      30.00F FOG
$$

ABBREVIATIONS USED IN REMARKS
   TC - TEMPERATURE IN CELSIUS
  WCI - WIND CHILL INDEX
   HX - HEAT INDEX
  VSB - VISIBILITY
$$




USA.gov is the U.S. government's official web portal to all federal, state and local government web resources and services.